Weather History for Grand Canyon, AZ

Change the Weather History Date:

Monday, March 17, 2014

  Actual Average Record
Temperature  
Mean Temperature 40 °F -  
Max Temperature 62 °F 54 °F 75 °F (2007)
Min Temperature 17 °F 21 °F 3 °F (2002)
Degree Days  
Heating Degree Days 26    
Moisture  
Dew Point 7 °F    
Average Humidity 31    
Maximum Humidity 77    
Minimum Humidity 8    
Precipitation  
Precipitation 0.00 in - - ()
Sea Level Pressure  
Sea Level Pressure 29.82 in    
Wind  
Wind Speed 7 mph (West)    
Max Wind Speed 24 mph    
Max Gust Speed 37 mph    
Visibility 10 miles    
Events      
Averages and records for this station are not official NWS values.
T = Trace of Precipitation, MM = Missing Value Source: NWS Daily Summary

Daily Weather History Graph

Daily Weather History Graph

Search for Another Location

Airport:

Trip Planner

Search our weather history database for the weather conditions in past years. The results will help you decide how hot, cold, wet, or windy it might be!

Date:

Astronomy

Mar. 17, 2014 Rise Set
Actual Time 6:36 AM MST 6:37 PM MST
Civil Twilight 6:10 AM MST 7:03 PM MST
Nautical Twilight 5:41 AM MST 7:33 PM MST
Astronomical Twilight 5:11 AM MST 8:03 PM MST
Moon 7:54 PM MST (3/17) 6:56 AM MST (3/17)
Length of Visible Light 12h 52m
Length of Day
12h 01m
Full, 99% of the Moon is Illuminated
Mar 17
Full
Mar 23
Last Quarter
Mar 30
New
Apr 7
First Quarter
Apr 15
Full

Hourly Weather History & Observations

Time (MST) Temp. Windchill Dew Point Humidity Pressure Visibility Wind Dir Wind Speed Gust Speed Precip Events Conditions
12:54 AM 24.1 °F - 10.9 °F 57% 30.14 in 10.0 mi Calm Calm - N/A   Clear
1:54 AM 23.0 °F - 10.9 °F 60% 30.11 in 10.0 mi Calm Calm - N/A   Clear
2:54 AM 21.9 °F - 10.9 °F 63% 30.07 in 10.0 mi Calm Calm - N/A   Clear
3:54 AM 19.9 °F - 10.9 °F 68% 30.05 in 10.0 mi Calm Calm - N/A   Clear
4:54 AM 19.9 °F - 12.0 °F 71% 30.02 in 10.0 mi Calm Calm - N/A   Clear
5:54 AM 19.0 °F - 10.9 °F 71% 30.00 in 10.0 mi Calm Calm - N/A   Clear
6:54 AM 17.1 °F - 10.9 °F 77% 30.04 in 10.0 mi Calm Calm - N/A   Clear
7:54 AM 30.0 °F - 15.1 °F 54% 29.99 in 10.0 mi Calm Calm - N/A   Clear
8:54 AM 50.0 °F - 10.9 °F 21% 29.88 in 10.0 mi SSW 21.9 mph 28.8 mph N/A   Clear
9:54 AM 53.1 °F - 10.9 °F 19% 29.89 in 10.0 mi SW 19.6 mph 32.2 mph N/A   Clear
10:54 AM 59.0 °F - 10.0 °F 14% 29.82 in 10.0 mi WSW 23.0 mph 32.2 mph N/A   Clear
11:54 AM 62.1 °F - 10.0 °F 13% 29.76 in 10.0 mi WSW 24.2 mph 33.4 mph N/A   Clear
12:54 PM 62.1 °F - 8.1 °F 12% 29.73 in 10.0 mi West 19.6 mph 35.7 mph N/A   Clear
1:54 PM 62.1 °F - 7.0 °F 11% 29.70 in 10.0 mi West 12.7 mph 29.9 mph N/A   Clear
2:54 PM 62.1 °F - 5.0 °F 10% 29.69 in 10.0 mi West 18.4 mph 36.8 mph N/A   Clear
3:54 PM 62.1 °F - -0.9 °F 8% 29.66 in 10.0 mi West 11.5 mph 34.5 mph N/A   Clear
4:54 PM 60.1 °F - -2.0 °F 8% 29.66 in 10.0 mi West 16.1 mph 29.9 mph N/A   Clear
5:54 PM 57.9 °F - -0.0 °F 10% 29.66 in 10.0 mi West 13.8 mph 21.9 mph N/A   Clear
6:54 PM 54.0 °F - 1.9 °F 12% 29.69 in 10.0 mi West 10.4 mph 18.4 mph N/A   Clear
7:54 PM 52.0 °F - -5.1 °F 9% 29.65 in 10.0 mi West 11.5 mph 21.9 mph N/A   Clear
8:54 PM 48.0 °F - -6.0 °F 10% 29.62 in 10.0 mi Variable 4.6 mph - N/A   Clear
9:54 PM 46.9 °F - 8.1 °F 21% 29.63 in 10.0 mi NW 9.2 mph 23.0 mph N/A   Clear
10:54 PM 43.0 °F 36.8 °F 7.0 °F 23% 29.65 in 10.0 mi WNW 11.5 mph 20.7 mph N/A   Clear
11:54 PM 39.0 °F 34.0 °F 7.0 °F 27% 29.67 in 10.0 mi Variable 6.9 mph - N/A   Clear